Station 42023 - C13 - WFS South Buoy, 50m Isobath Image indicating link to RSS feed of recent meteorological observations for station 42023


Conditions at 42023 as of
(6:35 am CDT)
1135 GMT on 05/21/2024:
     

Click on the graph icon in the table below to see a time series plot of the last five days of that observation.

5-day plot - Wind Direction Wind Direction (WDIR): E ( 90 deg true )
5-day plot - Wind Speed Wind Speed (WSPD): 11.7 kts
5-day plot - Wind Gust Wind Gust (GST): 13.6 kts
5-day plot - Atmospheric Pressure Atmospheric Pressure (PRES):29.93 in
5-day plot - Air Temperature Air Temperature (ATMP): 79.7 °F
5-day plot - Water Temperature Water Temperature (WTMP): 82.2 °F
5-day plot - Dew Point Dew Point (DEWP): 72.9 °F
5-day plot - Heat Index Heat Index (HEAT): 83.5 °F
5-day plot - Wind Speed at 10 Meters Wind Speed at 10 meters (WSPD10M): 13.6 kts
5-day plot - Wind Speed at 20 Meters Wind Speed at 20 meters (WSPD20M): 15.5 kts
5-day plot -  Wind Speed, Wind Gust and Atmospheric Pressure Combined plot of Wind Speed, Gust, and Air Pressure
Previous observations
TIME
(CDT)
5-day plot - Wind Direction
WDIR
 
5-day plot - Wind Speed
WSPD
kts
5-day plot - Wind Gust
GST
kts
5-day plot - Wave Height
WVHT
ft
5-day plot - Dominant Wave Period
DPD
sec
5-day plot - Average Wave Period
APD
sec
5-day plot - Mean Wave Direction
MWD
 
5-day plot - Atmospheric Pressure
PRES
in
5-day plot - Pressure Tendency
PTDY
in
5-day plot - Air Temperature
ATMP
°F
5-day plot - Water Temperature
WTMP
°F
5-day plot - Dew Point
DEWP
°F
5-day plot - Salinity
SAL
psu
5-day plot - Visibility
VIS
nmi
5-day plot - Tide (above MLLW)
TIDE
ft
2024-05-21 06:05 am E 11.7 15.5----29.92- 79.7 82.2 73.8---
2024-05-21 05:35 am E 13.6 17.5----29.91- 79.9 82.2 74.1---
2024-05-21 05:05 am E 9.7 11.7----29.91- 80.2 82.4 73.0---
2024-05-21 04:35 amENE 9.7 13.6----29.90- 80.4 82.6 73.4---
2024-05-21 04:05 am NE 9.7 11.7----29.91- 80.6 82.6 73.9---
2024-05-21 03:35 am NE 9.7 13.6----29.91- 80.4 82.8 73.6---
2024-05-21 03:05 amNNE 9.7 13.6----29.91- 80.2 82.8 74.3---
2024-05-21 02:35 amNNE 9.7 11.7----29.90- 80.1 82.6 75.4---
2024-05-21 02:05 amNNE 9.7 11.7----29.90- 80.1 82.6 74.8---
2024-05-21 01:35 am N 7.8 11.7----29.91- 80.1 82.6 75.0---
2024-05-21 01:05 am N 9.7 11.7----29.91- 80.2 82.6 75.2---
2024-05-21 12:35 am N 7.8 9.7----29.92- 80.1 82.6 75.0---
2024-05-21 12:05 am N 7.8 11.7----29.93- 80.2 82.8 75.4---
2024-05-20 11:35 pmNNE 5.8 7.8----29.94- 80.4 82.8 75.4---
2024-05-20 11:05 pm N 5.8 7.8----29.95- 80.6 82.8 75.4---
2024-05-20 10:35 pmNNE 5.8 7.8----29.95- 80.8 83.3 75.6---
2024-05-20 10:05 pm N 5.8 9.7----29.95- 81.0 83.8 75.4---
2024-05-20 09:35 pm N 7.8 9.7----29.94- 81.3 84.2 75.7---
2024-05-20 09:05 pm N 9.7 11.7----29.93- 81.5 84.0 75.7---
2024-05-20 08:35 pmNNW 7.8 9.7----29.92- 81.5 84.2 75.0---
2024-05-20 08:05 pmNNW 3.9 5.8----29.93- 81.5 84.0 74.7---
2024-05-20 07:35 pm N 5.8 7.8----29.92- 81.7 84.0 74.8---
2024-05-20 07:05 pm N 5.8 5.8----29.92- 81.9 84.2 75.0---
2024-05-20 06:35 pmNNW 3.9 5.8----29.92- 82.2 83.5 75.0---
2024-05-20 06:05 pmNNW 3.9 5.8----29.91- 82.9 83.7 74.8---
2024-05-20 05:35 pmNNW 1.9 3.9----29.90- 84.6 84.0 74.5---
2024-05-20 05:05 pm NE 1.9 3.9----29.91- 83.7 84.2 74.1---
2024-05-20 04:35 pmENE 1.9 3.9----29.91- 83.7 84.2 74.3---
2024-05-20 04:05 pm NE 1.9 3.9----29.92- 83.7 84.2 74.1---
2024-05-20 03:35 pmENE 1.9 3.9----29.93- 84.0 84.0 74.1---
2024-05-20 03:05 pmENE 1.9 3.9----29.93- 83.8 84.0 73.6---
2024-05-20 02:35 pm NE 3.9 5.8----29.94- 82.9 83.3 74.1---
2024-05-20 02:05 pm NE 3.9 5.8----29.95- 82.9 83.5 73.8---
2024-05-20 01:35 pmNNE 3.9 5.8----29.96- 82.8 83.3 73.4---
2024-05-20 01:05 pm N 3.9 7.8----29.96- 82.8 83.1 72.9---
2024-05-20 12:35 pm N 3.9 5.8----29.96- 82.9 83.1 72.5---
2024-05-20 12:05 pmNNW 3.9 5.8----29.95- 82.9 82.2 72.9---
2024-05-20 11:35 am NW 3.9 3.9----29.96- 82.9 82.2 72.9---
2024-05-20 11:05 amNNW 1.9 3.9----29.95- 83.3 82.0 73.0---
2024-05-20 10:35 am W 1.9 1.9----29.96- 84.0 82.0 73.9---
2024-05-20 10:05 amWNW 1.9 3.9----29.96- 83.3 82.0 73.4---
2024-05-20 09:35 am- 0.0 1.9----29.96- 83.8 82.0 74.7---
2024-05-20 09:05 amSSW 1.9 3.9----29.96- 82.6 81.9 74.7---
2024-05-20 08:35 amSSW 1.9 3.9----29.95- 82.8 81.7 74.8---
2024-05-20 08:05 am SW 1.9 3.9----29.95- 82.6 81.7 75.0---
2024-05-20 07:35 amWNW 1.9 1.9----29.94- 82.8 81.7 74.5---
2024-05-20 07:05 amWSW 1.9 1.9----29.94- 82.9 81.7 74.5---